Location: *
(46.1333°S, 161.2167°W)
Time: 04:04:56
(UTC+00:00)

S3M - Pass Details

Date: 15 July 2020
Orbit: 950 x 1003 km, 83.0° (Epoch: 10 August)

Event Time Altitude Azimuth Distance (km) Brightness Sun altitude
Rises 16:58:36 0° 192° (SSW) 3,666 6.7 -14.0°
Reaches altitude 10° 17:01:09 10° 196° (SSW) 2,712 6.0 -13.5°
Maximum altitude 17:07:12 58° 272° (W) 1,119 4.0 -12.5°
Drops below altitude 10° 17:13:12 10° 349° (N) 2,688 6.4 -11.5°
Sets 17:15:43 0° 353° (N) 3,631 7.2 -11.1°
